Location: *
(52.2090°N, 4.1550°W)
Time: 00:17:07
(UTC+00:00)

ERS-2 - Pass Details

Date: 19 July 2019
Orbit: 494 x 501 km, 98.5° (Epoch: 23 August)

Event Time Altitude Azimuth Distance (km) Brightness Sun altitude
Exits shadow 23:42:21 31° 135° (SE) 902 3.0 -16.5°
Maximum altitude 23:43:52 57° 70° (ENE) 599 2.5 -16.5°
Drops below altitude 10° 23:47:30 10° 352° (N) 1,722 6.2 -16.6°
Sets 23:49:37 0° 348° (NNW) 2,611 7.6 -16.7°
